San Luis Obispo, CA

4:22 PM PST on February 13, 2016 (GMT -0800)
San Luis Obispo County-McChesney

Weather History for KSBP - March, 2014

Change the Weather History Date:

Sunday, March 30, 2014

  Actual Average Record
Temperature  
Mean Temperature 58 °F -  
Max Temperature 69 °F 67 °F - (-1)
Min Temperature 51 °F 43 °F - (-1)
Degree Days  
Heating Degree Days 6    
Growing Degree Days 8 (Base 50)    
Moisture  
Dew Point 47 °F    
Average Humidity 73    
Maximum Humidity 89    
Minimum Humidity 40    
Precipitation  
Precipitation 0.05 in - - ()
Sea Level Pressure  
Sea Level Pressure 30.09 in    
Wind  
Wind Speed 9 mph (NW)    
Max Wind Speed 22 mph    
Max Gust Speed 29 mph    
Visibility 10 miles    
Events Rain    
Averages and records for this station are not official NWS values.
T = Trace of Precipitation, MM = Missing Value Source: NWS Daily Summary

Daily Weather History Graph

Daily Weather History Graph

Search for Another Location

Airport or City:

Trip Planner

Search our weather history database for the weather conditions in past years. The results will help you decide how hot, cold, wet, or windy it might be!

Date:

Astronomy

Mar. 30, 2014 Rise Set
Actual Time 6:51 AM PDT 7:22 PM PDT
Civil Twilight 6:26 AM PDT 7:48 PM PDT
Nautical Twilight 5:56 AM PDT 8:18 PM PDT
Astronomical Twilight 5:25 AM PDT 8:48 PM PDT
Moon 6:41 AM PDT (3/30) 7:39 PM PDT (3/30)
Length of Visible Light 13h 21m
Length of Day
12h 30m
New Moon, 0% of the Moon is Illuminated
Mar 30
New Moon
Apr 7
First Quarter
Apr 15
Full
Apr 22
Last Quarter
Apr 28
New

Hourly Weather History & Observations

Time (PDT) Temp. Dew Point Humidity Pressure Visibility Wind Dir Wind Speed Gust Speed Precip Events Conditions
12:05 AM 55.4 °F 51.8 °F 88% 30.06 in 8.0 mi WNW 11.5 mph - 0.01 in Rain Light Rain
12:18 AM 53.6 °F 50.0 °F 88% 30.06 in 6.0 mi WNW 16.1 mph 21.9 mph 0.02 in Rain Light Rain
12:56 AM 53.1 °F 50.0 °F 89% 30.07 in 10.0 mi WNW 6.9 mph - 0.03 in Rain Light Rain
1:56 AM 53.1 °F 50.0 °F 89% 30.08 in 10.0 mi NW 4.6 mph - 0.00 in   Mostly Cloudy
2:41 AM 53.6 °F 50.0 °F 88% 30.07 in 10.0 mi Calm Calm - N/A   Overcast
2:56 AM 54.0 °F 48.9 °F 83% 30.08 in 10.0 mi NNW 9.2 mph - N/A   Overcast
3:08 AM 53.6 °F 48.2 °F 82% 30.08 in 10.0 mi NW 6.9 mph - N/A   Overcast
3:47 AM 53.6 °F 48.2 °F 82% 30.07 in 10.0 mi NNW 3.5 mph - N/A   Overcast
3:56 AM 54.0 °F 48.0 °F 80% 30.07 in 10.0 mi North 4.6 mph - N/A   Overcast
4:10 AM 53.6 °F 48.2 °F 82% 30.07 in 10.0 mi Calm Calm - N/A   Mostly Cloudy
4:27 AM 53.6 °F 48.2 °F 82% 30.07 in 4.0 mi WNW 4.6 mph - 0.01 in Rain Light Rain
4:52 AM 53.6 °F 48.2 °F 82% 30.06 in 10.0 mi Calm Calm - 0.02 in   Overcast
4:56 AM 53.1 °F 48.9 °F 86% 30.06 in 10.0 mi Calm Calm - 0.02 in   Overcast
5:56 AM 51.1 °F 48.0 °F 89% 30.08 in 10.0 mi NW 3.5 mph - N/A   Scattered Clouds
6:56 AM 51.1 °F 44.1 °F 77% 30.06 in 10.0 mi NW 5.8 mph - N/A   Scattered Clouds
7:56 AM 53.1 °F 45.0 °F 74% 30.10 in 10.0 mi NNW 8.1 mph - N/A   Scattered Clouds
8:56 AM 55.9 °F 46.0 °F 69% 30.12 in 10.0 mi NNW 9.2 mph - N/A   Scattered Clouds
9:56 AM 60.1 °F 45.0 °F 57% 30.13 in 10.0 mi North 9.2 mph - N/A   Clear
10:56 AM 63.0 °F 43.0 °F 48% 30.14 in 10.0 mi North 12.7 mph - N/A   Mostly Cloudy
11:56 AM 64.0 °F 43.0 °F 46% 30.12 in 10.0 mi North 9.2 mph - N/A   Mostly Cloudy
12:56 PM 66.0 °F 41.0 °F 40% 30.11 in 10.0 mi North 10.4 mph - N/A   Scattered Clouds
1:56 PM 66.0 °F 46.9 °F 50% 30.10 in 10.0 mi NW 19.6 mph 24.2 mph N/A   Scattered Clouds
2:56 PM 63.0 °F 46.9 °F 56% 30.10 in 10.0 mi NW 19.6 mph 28.8 mph N/A   Clear
3:56 PM 63.0 °F 46.9 °F 56% 30.09 in 10.0 mi NW 19.6 mph - N/A   Clear
4:56 PM 61.0 °F 46.9 °F 60% 30.08 in 10.0 mi NW 19.6 mph 28.8 mph N/A   Clear
5:56 PM 59.0 °F 46.0 °F 62% 30.06 in 10.0 mi NW 21.9 mph 26.5 mph N/A   Clear
6:56 PM 57.0 °F 46.0 °F 67% 30.07 in 10.0 mi NW 12.7 mph 23.0 mph N/A   Clear
7:56 PM 55.0 °F 46.0 °F 72% 30.09 in 10.0 mi NW 15.0 mph 24.2 mph N/A   Clear
8:56 PM 54.0 °F 46.9 °F 77% 30.11 in 10.0 mi NNW 10.4 mph - N/A   Clear
9:56 PM 54.0 °F 46.0 °F 75% 30.11 in 10.0 mi NNW 11.5 mph - N/A   Clear
10:56 PM 53.1 °F 45.0 °F 74% 30.10 in 10.0 mi NNW 8.1 mph - N/A   Clear
11:56 PM 52.0 °F 46.0 °F 80% 30.09 in 10.0 mi NNW 4.6 mph - N/A   Partly Cloudy